www.pogodaiklimat.ru

Погода и климат >> Архив погоды >> Индонезия >> Лабуха


ПОГОДА в Лабухе

  • Прогноз погоды в Лабухе
  • Монитор погоды в Лабухе

АРХИВ ПОГОДЫ в Лабухе

Время (UTC), дата Ветер
(напр.,м/с)
 
Видим.   Явления Облачность Т
(С)
Тd
(С)
f
(%)
Тe
(С)
Тes
(С)
Комфортность P
(гПа)
Po
(гПа)
Тmin
(С)
Tmax
(С)
R
(мм)
R24
(мм)
S
(см)
18 16.07 штиль 0 9000 м 8/4 540 м
[Cu Sc Ac As Ci sp]
+23.8 +22.5 92 +31 +31 очень
душно
1009.3 1007.1
21 16.07 ЮВ 2 9000 м 8/4 540 м
[Cu Sc Ac As Ci sp]
+23.8 +22.5 92 +31 +31 очень
душно
1009.3 1007.2
00 17.07 В 2 9000 м 9/4 540 м
[Cu Sc Ac As Ci sp]
+25.6 +23.8 90 +35 +38 очень
душно
1010.6 1008.4 +23.8
03 17.07 С 2 9000 м 9/4 540 м
[Cu Sc Ac As Ci sp]
+29.4 +23.9 72 +40 +48 очень
душно
1009.4 1007.2
06 17.07 штиль 0 9000 м в посл. час дождь 9/5 540 м
[Cu Sc Ac As Ci sp]
+28.2 +24.7 81 +40 +45 очень
душно
1007.3 1005.2 0.2
09 17.07 В 4 9000 м 8/4 540 м
[Cu Sc Ac trans Ci sp]
+27.6 +21.9 71 +36 +36 очень
душно
1007.4 1005.2
12 17.07 В 3 9000 м 6/4 540 м
[Cu Sc Ac trans Ci sp]
+26.4 +22.2 78 +34 +34 очень
душно
1009.6 1007.4 +29.4
15 17.07 штиль 0 9000 м 9/4 540 м
[Cu Sc Ac As Cs]
+25.4 +23.0 87 +34 +34 очень
душно
1010.1 1007.9
18 17.07 штиль 0 8000 м слаб. дождь 9/4 540 м
[Cb calv Ac As Ci fib]
+24.2 +22.6 91 +32 +32 очень
душно
1009.5 1007.4 1
21 17.07 штиль 0 8000 м {дождь} 9/4 540 м
[Cu Sc Ac As Ci sp]
+24.0 +23.3 96 +32 +32 очень
душно
1010.0 1007.9
00 18.07 штиль 0 7000 м слаб. дождь 9/5 500 м
[Cb calv Ac As Ci sp]
+24.2 +23.5 96 +33 +36 очень
душно
1011.7 1009.6 +23.9 3
06 18.07 ЮЗ 3 9000 м {дождь} 9/4 540 м
[Cu Sc Ac As Cs]
+28.2 +24.4 80 +40 +44 очень
душно
1008.2 1006.0 13
09 18.07 З 1 9000 м 6/4 570 м
[Cu med, cong Ac trans Ci sp]
+28.0 +24.2 80 +39 +39 очень
душно
1007.9 1005.7
12 18.07 штиль 0 9000 м 6/4 570 м
[Cu med, cong As op Ci ing]
+25.2 +23.7 91 +34 +34 очень
душно
1009.9 1007.8 +28.8
15 18.07 штиль 0 9000 м 6/3 570 м
[Cu med, cong Ac trans Ci sp]
+24.0 +22.7 92 +31 +31 очень
душно
1010.5 1008.3
18 18.07 штиль 0 10 км 6/3 570 м
[Cu med, cong Ac trans Ci sp]
+23.0 +22.0 94 +31 +31 очень
душно
1009.7 1007.5
21 18.07 штиль 0 10 км 6/3 570 м
[Cu med, cong Ac trans Ci sp]
+22.2 +21.2 94 +29 +29 очень
душно
1009.5 1007.4
00 19.07 СВ 2 9000 м 8/4 540 м
[Cu Sc Ac As Ci sp]
+26.0 +23.6 87 +35 +38 очень
душно
1010.8 1008.6 +21.8 13
03 19.07 СВ 4 9000 м 8/5 500 м
[Cu Sc Ac As Ci sp]
+30.4 +24.1 69 +42 +46 опасность
перегрева
1009.9 1007.7
06 19.07 СВ 4 9000 м 8/4 540 м
[Cu Sc Ac As Cs]
+30.6 +23.0 64 +41 +44 опасность
перегрева
1007.6 1005.4
09 19.07 В 2 9000 м 8/3 540 м
[Cu Sc Ac As Cs]
+28.4 +22.6 71 +38 +38 очень
душно
1008.1 1006.0
12 19.07 В 1 9000 м 8/4 540 м
[Cu Sc Ac As Cs]
+25.7 +22.1 81 +33 +33 очень
душно
1009.9 1007.7 +30.8
15 19.07 Ю 1 9000 м 6/3 540 м
[Cu Sc Ac As Ci sp]
+24.0 +22.4 91 +31 +31 очень
душно
1010.2 1008.0
18 19.07 штиль 0 9000 м 6/3 540 м
[Cu Sc Ac As Ci sp]
+23.0 +21.7 92 +31 +31 очень
душно
1009.6 1007.5
21 19.07 штиль 0 9000 м 6/3 540 м
[Cu Sc Ac As Ci sp]
+22.3 +21.1 93 +29 +29 очень
душно
1010.2 1008.1
00 20.07 штиль 0 8000 м 9/5 500 м
[Cu Sc Ac As Ci sp]
+24.2 +23.5 96 +33 +36 очень
душно
1011.9 1009.8 +22.0
03 20.07 ЮЗ 1 9000 м 9/5 500 м
[Cu Sc Ac As Ci sp]
+29.0 +23.1 71 +39 +46 очень
душно
1010.6 1008.5
06 20.07 ЮЗ 6 9000 м 8/5 540 м
[Cu Sc Ac As Ci sp]
+29.2 +24.3 75 +41 +43 опасность
перегрева
1008.7 1006.6
09 20.07 З 3 9000 м {дождь} 8/4 500 м
[Cu Sc Ac As Ci sp]
+27.8 +24.1 80 +39 +39 очень
душно
1008.9 1006.7 0.4
12 20.07 В 1 9000 м {дождь} 6/3 500 м
[Cu Sc Ac As Ci sp]
+26.0 +24.2 90 +36 +36 очень
душно
1010.0 1007.9 +29.4 0.4
15 20.07 штиль 0 9000 м 6/3 500 м
[Cu Sc Ac As Ci sp]
+25.0 +23.7 93 +34 +34 очень
душно
1010.9 1008.7
18 20.07 штиль 0 9000 м 6/3 540 м
[Cu Sc Ac As Ci sp]
+23.4 +21.5 89 +32 +32 очень
душно
1009.7 1007.6
21 20.07 штиль 0 9000 м 8/4 500 м
[Cu Sc Ac As Cs]
+22.4 +21.7 96 +30 +30 очень
душно
1010.0 1007.9
00 21.07 0 н/о
03 21.07 З 2 10 км 6/4 570 м
[Cu med, cong Ac trans Ci sp]
+29.6 +23.5 70 +40 +50 очень
душно
1009.3 1007.1
06 21.07 С 1 9000 м 6/4 570 м
[Cu med, cong Ac trans Ci sp]
+29.0 +22.2 67 +38 +45 очень
душно
1007.6 1005.5
09 21.07 СВ 1 8000 м в посл. час дождь 9/5 500 м
[Cb calv Ac As Ci sp]
+26.4 +24.3 88 +37 +37 очень
душно
1008.5 1006.3 3
12 21.07 СВ 1 8000 м {дождь} 9/5 500 м
[Cb calv Ac As Ci sp]
+25.4 +24.2 93 +35 +35 очень
душно
1010.0 1007.8 +29.6 3
15 21.07 штиль 0 9000 м 6/3 540 м
[Cu Sc Ac As Ci sp]
+24.4 +23.7 96 +33 +33 очень
душно
1010.1 1009.8
18 21.07 штиль 0 9000 м 8/4 500 м
[Cu Sc Ac As Ci sp]
+23.8 +22.8 94 +31 +31 очень
душно
1009.0 1006.8
21 21.07 штиль 0 9000 м 8/4 500 м
[Cu Sc Ac As Ci sp]
+23.6 +22.6 94 +31 +31 очень
душно
1009.2 1007.0
00 22.07 З 1 10 км 8/4 500 м
[Cu Sc Ac trans Ci sp]
+26.8 +23.8 84 +37 +40 очень
душно
1010.2 1008.1 +22.2 3
03 22.07 З 2 9000 м 8/4 500 м
[Cu Sc Ac trans Ci sp]
+28.2 +24.1 78 +39 +47 очень
душно
1009.3 1007.2
06 22.07 ЮЗ 3 9000 м 9/4 500 м
[Cu Sc Ac As Cs]
+28.4 +24.3 78 +40 +43 очень
душно
1007.3 1005.2
09 22.07 ЮЗ 1 17 км слаб. дождь 9/5 500 м
[Cb calv Ac As Ci sp]
+26.2 +24.1 88 +36 +36 очень
душно
1007.8 1005.6 0.0
12 22.07 С 3 8000 м в посл. час дождь 9/5 500 м
[Cb calv Ac As Ci sp]
+25.4 +24.2 93 +35 +35 очень
душно
1009.4 1007.2 +29.2 1
15 22.07 штиль 0 7000 м в посл. час дождь 9/5 500 м
[Cb calv Ac As Ci sp]
+24.8 +24.1 96 +34 +34 очень
душно
1009.7 1007.6 1
18 22.07 СВ 2 9000 м 9/5 500 м
[Cb calv Ac As Ci sp]
+24.6 +23.9 96 +34 +34 очень
душно
1008.7 1006.6 1
21 22.07 ЮВ 1 8000 м 9/5 500 м
[Cb calv Ac As Ci sp]
+24.2 +23.5 96 +33 +33 очень
душно
1009.3 1007.2
00 23.07 штиль 0 6000 м слаб. дождь 9/5 480 м
[Cb calv Ac As Ci sp]
+25.2 +23.9 93 +35 +38 очень
душно
1010.5 1008.3 +24.2 0.3
06 23.07 штиль 0 2000 м слаб. дождь 9/5 480 м
[Cb calv Ac As Ci sp]
+24.2 +23.5 96 +33 +38 очень
душно
1009.3 1007.1 16
09 23.07 штиль 0 5000 м в посл. час дождь 9/5 480 м
[Cb calv Ac As Cs]
+24.2 +23.2 94 +32 +32 очень
душно
1009.5 1007.4 7
12 23.07 штиль 0 8000 м {дождь} 9/5 500 м
[Cb calv Ac As Ci sp]
+23.8 +22.8 94 +31 +31 очень
душно
1011.5 1009.2 +26.0 7

 

Местоположение метеостанции Лабуха (Индонезия): широта -0.63 долгота 127.50 высота над уровнем моря 3 м.

В архиве по умолчанию представлена погода в Лабухе за последнюю неделю. Архивные данные за месяц целиком и за предыдущие месяцы, начиная с января 2011 года, Вы можете получить, выбрав интересующий диапазон дат из раскрывающегося списка и нажав кнопку "Ввод!".


*Определитесь, кто Вы:
робот инопланетянин человек

Внимание! Время в таблицах - всемирное. Для получения местного времени необходимо прибавить поправку, которая равна 9 ч.

Смотрите также архив погоды в соседних городах и на ближайших метеорологических станциях:

Погода в Тернате (Индонезия) (156 км)
Погода на Санане (Индонезия) (232 км)
Погода в Голеа (Индонезия) (275 км)
Погода в Намлеа (Индонезия) (295 км)
Погода в Амахаи (Индонезия) (339 км)
Погода в Битунге (Индонезия) (345 км)
Погода в Амбоне (Индонезия) (347 км)
Погода в Менадо (Индонезия) (375 км)
Погода в Тауне (Индонезия) (398 км)
Погода в Аэропорту Соронг-Джефман (Индонезия) (403 км)

Пояснения к столбцам:

Ветер - указаны скорость ветра в м/с - средняя за 10 мин, порывы в срок и между сроками (в фигурных скобках) и направление, откуда дует ветер: С - северный, СВ - северо-восточный, В - восточный, ЮВ - юго-восточный, Ю - южный, ЮЗ - юго-западный, З - западный, СЗ - северо-западный.
Видимость - горизонтальная дальность видимости в метрах или километрах. При видимости от 1 до 10 км при отсутствии осадков обычно наблюдается дымка, при ухудшении видимости до 1 км и менее - туман. В сухую погоду видимость может ухудшаться дымом, пылью или мглою.
Явления - указаны атмосферные явления, наблюдавшиеся в срок или в последний час перед сроком; фигурными скобками обозначены явления, наблюдавшиеся между сроками (за 1-3 часа до срока); квадратными скобками обозначены град или гололедные отложения с указанием их диаметра в мм.
Облачность - указаны через наклонную черту общая и нижняя облачность в баллах и высота нижней границы облаков в метрах; квадратными скобками обозначены формы облаков: Ci - перистые, Cs - перисто-слоистые, Cc - перисто-кучевые, Ac - высококучевые, As - высокослоистые, Sc - слоисто-кучевые, Ns - слоисто-дождевые, Cu - кучевые, Cb - кучево-дождевые. Подробнее классификацию облаков см. в Атласе облаков (PDF).
T - Температура воздуха - температура, измеренная на высоте 2 м над землей.
Td - Температура точки росы - температура, при понижении до которой содержащийся в воздухе водяной пар достигнет насыщения.
f - Относительная влажность воздуха - влажноcть воздуха, измеренная на высоте 2 м над землей.
Te - Эффективная температура - температура, которую ощущает одетый по сезону человек в тени. Характеристика душности погоды. При расчете учитывается влияние влажности воздуха и скорости ветра на теплоощущения человека.
Tes - Эффективная температура на солнце - температура, которую ощущает человек, с поправкой на солнечный нагрев. Характеристика знойности погоды. Зависит от высоты солнца над горизонтом, облачности и скорости ветра. Ночью, в пасмурную погоду, а также при ветре 12 м/с и более поправка равна нулю.
P - Атмосферное давление - приведенное к уровню моря атмосферное давление.
Po - Атмосферное давление - измеренное на уровне метеостанции атмосферное давление.
Tmin - Минимальная температура - минимум температуры воздуха на высоте 2 м над землей.
Tmax - Максимальная температура - максимум температуры воздуха на высоте 2 м над землей.
R - Количество осадков - Количество выпавших осадков за период времени, мм. При наведении курсора мыши на число - период времени, за который выпало указанное количество осадков.
R24 - Количество осадков - Количество выпавших осадков за 24 часа, мм.
S - Снежный покров - Высота снежного покрова, см. При наведении курсора мыши на число - состояние снежного покрова и степень покрытия местности в баллах.